When you browse on this site, cookies collect data to enhance your experience and personalize the content and advertising you see.
Visit our Privacy Policy to learn more. By continuing to use the site, you agree to this use of cookies and data.
  • In Österreich
  • Länderverzeichnis
  • Für 7 Tage
  • Wassertemperatur
  • Satellitenkarten
  • Wetterkarte
  • News
  • Widgets
  • user-avatar
    Anmelden

    Stündliche Wetter Ilincy

    Heute, 20 April, Samstag

    Zeit Temperatur Niederschläge Wind Luftdruck Luftfeuchtigkeit
    00:00 +6°C° 0 mm 1 m/S 750 mmHg 70%
    01:00 +6°C° 0 mm 1 m/S 749 mmHg 71%
    02:00 +6°C° 0 mm 1 m/S 749 mmHg 72%
    03:00 +5°C° 0 mm 1 m/S 749 mmHg 73%
    04:00 +5°C° 0 mm 1 m/S 749 mmHg 74%
    05:00 +4°C° 0 mm 2 m/S 749 mmHg 75%
    06:00 +6°C° 0 mm 2 m/S 749 mmHg 70%
    07:00 +7°C° 0 mm 2 m/S 749 mmHg 65%
    08:00 +9°C° 0 mm 2 m/S 749 mmHg 59%
    09:00 +10°C° 0 mm 2 m/S 749 mmHg 53%
    10:00 +12°C° 0 mm 2 m/S 749 mmHg 47%
    11:00 +13°C° 0 mm 2 m/S 749 mmHg 41%
    12:00 +13°C° 0 mm 2 m/S 749 mmHg 42%
    13:00 +13°C° 0 mm 2 m/S 749 mmHg 42%
    14:00 +13°C° 0 mm 2 m/S 749 mmHg 46%
    15:00 +13°C° 0 mm 2 m/S 748 mmHg 46%
    16:00 +13°C° 0 mm 2 m/S 748 mmHg 47%
    17:00 +13°C° 0 mm 2 m/S 748 mmHg 48%
    18:00 +13°C° 0 mm 1 m/S 748 mmHg 50%
    19:00 +12°C° 0 mm 1 m/S 747 mmHg 53%
    20:00 +11°C° 0 mm 1 m/S 747 mmHg 56%
    21:00 +10°C° 0 mm 1 m/S 747 mmHg 57%
    22:00 +10°C° 0 mm 1 m/S 747 mmHg 59%
    23:00 +8°C° 0 mm 2 m/S 747 mmHg 61%

    Morgen, 21 April, Sonntag

    Zeit Temperatur Niederschläge Wind Luftdruck Luftfeuchtigkeit
    00:00 +8°C° 0 mm 2 m/S 746 mmHg 62%
    01:00 +7°C° 0 mm 2 m/S 746 mmHg 64%
    02:00 +7°C° 0 mm 2 m/S 746 mmHg 66%
    03:00 +7°C° 0 mm 2 m/S 746 mmHg 70%
    04:00 +6°C° 0 mm 2 m/S 746 mmHg 74%
    05:00 +7°C° 0 mm 1 m/S 745 mmHg 77%
    06:00 +7°C° 0 mm 2 m/S 746 mmHg 74%
    07:00 +8°C° 0 mm 2 m/S 746 mmHg 70%
    08:00 +9°C° 0 mm 2 m/S 746 mmHg 66%
    09:00 +11°C° 0 mm 3 m/S 746 mmHg 60%
    10:00 +12°C° 0 mm 3 m/S 746 mmHg 54%
    11:00 +13°C° 0 mm 4 m/S 746 mmHg 48%
    12:00 +13°C° 0.1 mm 4 m/S 745 mmHg 49%
    13:00 +13°C° 0.1 mm 4 m/S 745 mmHg 49%
    14:00 +13°C° 0.1 mm 5 m/S 745 mmHg 49%
    15:00 +13°C° 0.1 mm 5 m/S 745 mmHg 50%
    16:00 +13°C° 0.1 mm 5 m/S 745 mmHg 51%
    17:00 +13°C° 0.1 mm 5 m/S 745 mmHg 53%
    18:00 +11°C° 0 mm 4 m/S 745 mmHg 57%
    19:00 +10°C° 0 mm 3 m/S 745 mmHg 62%
    20:00 +9°C° 0 mm 3 m/S 745 mmHg 66%
    21:00 +8°C° 0 mm 3 m/S 745 mmHg 67%
    22:00 +8°C° 0 mm 3 m/S 745 mmHg 68%
    23:00 +7°C° 0 mm 3 m/S 746 mmHg 68%

    übermorgen, 22 April, Montag

    Zeit Temperatur Niederschläge Wind Luftdruck Luftfeuchtigkeit
    00:00 +7°C° 0 mm 3 m/S 746 mmHg 68%
    01:00 +7°C° 0 mm 3 m/S 746 mmHg 69%
    02:00 +5°C° 0 mm 3 m/S 746 mmHg 69%
    03:00 +5°C° 0 mm 3 m/S 746 mmHg 70%
    04:00 +4°C° 0 mm 3 m/S 746 mmHg 71%
    05:00 +5°C° 0 mm 2 m/S 746 mmHg 72%
    06:00 +7°C° 0 mm 3 m/S 747 mmHg 66%
    07:00 +7°C° 0 mm 4 m/S 747 mmHg 60%
    08:00 +10°C° 0 mm 4 m/S 748 mmHg 53%
    09:00 +10°C° 0 mm 5 m/S 748 mmHg 49%
    10:00 +12°C° 0 mm 5 m/S 748 mmHg 44%
    11:00 +13°C° 0 mm 6 m/S 749 mmHg 39%
    12:00 +13°C° 0 mm 5 m/S 749 mmHg 40%
    13:00 +13°C° 0 mm 5 m/S 749 mmHg 40%
    14:00 +13°C° 0 mm 5 m/S 749 mmHg 41%
    15:00 +13°C° 0 mm 5 m/S 749 mmHg 43%
    16:00 +13°C° 0 mm 4 m/S 749 mmHg 45%
    17:00 +13°C° 0 mm 4 m/S 749 mmHg 46%
    18:00 +11°C° 0 mm 4 m/S 749 mmHg 52%
    19:00 +10°C° 0 mm 3 m/S 749 mmHg 57%
    20:00 +8°C° 0 mm 3 m/S 749 mmHg 62%
    21:00 +8°C° 0 mm 3 m/S 749 mmHg 63%
    22:00 +7°C° 0 mm 3 m/S 749 mmHg 64%
    23:00 +7°C° 0 mm 3 m/S 750 mmHg 65%

    23 April, Dienstag

    Zeit Temperatur Niederschläge Wind Luftdruck Luftfeuchtigkeit
    00:00 +7°C° 0 mm 3 m/S 750 mmHg 66%
    01:00 +7°C° 0 mm 3 m/S 750 mmHg 66%
    02:00 +5°C° 0 mm 3 m/S 750 mmHg 66%
    03:00 +5°C° 0 mm 3 m/S 750 mmHg 67%
    04:00 +5°C° 0 mm 3 m/S 750 mmHg 67%
    05:00 +5°C° 0 mm 3 m/S 750 mmHg 68%
    06:00 +7°C° 0 mm 3 m/S 750 mmHg 63%
    07:00 +8°C° 0 mm 4 m/S 751 mmHg 59%
    08:00 +11°C° 0 mm 4 m/S 751 mmHg 55%
    09:00 +12°C° 0 mm 5 m/S 751 mmHg 50%
    10:00 +13°C° 0 mm 5 m/S 751 mmHg 45%
    11:00 +14°C° 0 mm 5 m/S 751 mmHg 41%
    12:00 +15°C° 0 mm 5 m/S 751 mmHg 41%
    13:00 +15°C° 0 mm 6 m/S 751 mmHg 41%
    14:00 +15°C° 0 mm 6 m/S 751 mmHg 41%
    15:00 +15°C° 0 mm 5 m/S 750 mmHg 42%
    16:00 +15°C° 0 mm 5 m/S 750 mmHg 43%
    17:00 +15°C° 0 mm 5 m/S 750 mmHg 45%
    18:00 +13°C° 0 mm 4 m/S 750 mmHg 49%
    19:00 +12°C° 0 mm 4 m/S 750 mmHg 53%
    20:00 +11°C° 0 mm 4 m/S 750 mmHg 57%
    21:00 +10°C° 0 mm 4 m/S 750 mmHg 60%
    22:00 +8°C° 0 mm 4 m/S 750 mmHg 62%
    23:00 +7°C° 0 mm 4 m/S 751 mmHg 64%

    24 April, Mittwoch

    Zeit Temperatur Niederschläge Wind Luftdruck Luftfeuchtigkeit
    00:00 +8°C° 0 mm 3 m/S 751 mmHg 66%
    01:00 +7°C° 0 mm 3 m/S 751 mmHg 68%
    02:00 +7°C° 0 mm 3 m/S 751 mmHg 70%
    03:00 +5°C° 0 mm 3 m/S 751 mmHg 71%
    04:00 +5°C° 0 mm 3 m/S 751 mmHg 71%
    05:00 +5°C° 0 mm 3 m/S 751 mmHg 71%
    06:00 +7°C° 0 mm 4 m/S 751 mmHg 65%
    07:00 +10°C° 0 mm 4 m/S 751 mmHg 60%
    08:00 +12°C° 0 mm 5 m/S 751 mmHg 54%
    09:00 +13°C° 0 mm 5 m/S 752 mmHg 51%
    10:00 +14°C° 0 mm 6 m/S 752 mmHg 47%
    11:00 +15°C° 0 mm 6 m/S 752 mmHg 44%
    12:00 +16°C° 0 mm 6 m/S 751 mmHg 44%
    13:00 +16°C° 0 mm 6 m/S 751 mmHg 43%
    14:00 +17°C° 0 mm 6 m/S 751 mmHg 43%
    15:00 +16°C° 0 mm 5 m/S 751 mmHg 44%
    16:00 +16°C° 0 mm 5 m/S 750 mmHg 45%
    17:00 +16°C° 0 mm 5 m/S 750 mmHg 46%
    18:00 +14°C° 0 mm 4 m/S 750 mmHg 52%
    19:00 +13°C° 0 mm 4 m/S 750 mmHg 57%
    20:00 +11°C° 0 mm 3 m/S 750 mmHg 62%
    21:00 +10°C° 0 mm 3 m/S 750 mmHg 61%
    22:00 +10°C° 0 mm 3 m/S 750 mmHg 61%
    23:00 +9°C° 0 mm 3 m/S 751 mmHg 61%

    25 April, Donnerstag

    Zeit Temperatur Niederschläge Wind Luftdruck Luftfeuchtigkeit
    00:00 +9°C° 0 mm 3 m/S 751 mmHg 61%
    01:00 +8°C° 0 mm 3 m/S 751 mmHg 61%
    02:00 +7°C° 0 mm 3 m/S 751 mmHg 61%
    03:00 +7°C° 0 mm 3 m/S 751 mmHg 63%
    04:00 +7°C° 0 mm 3 m/S 751 mmHg 64%
    05:00 +5°C° 0 mm 3 m/S 751 mmHg 66%
    06:00 +7°C° 0 mm 4 m/S 751 mmHg 62%
    07:00 +10°C° 0 mm 4 m/S 751 mmHg 58%
    08:00 +10°C° 0 mm 5 m/S 751 mmHg 54%
    09:00 +13°C° 0 mm 5 m/S 751 mmHg 50%
    10:00 +15°C° 0 mm 5 m/S 751 mmHg 45%
    11:00 +16°C° 0 mm 6 m/S 751 mmHg 41%
    12:00 +17°C° 0 mm 6 m/S 750 mmHg 41%
    13:00 +17°C° 0 mm 6 m/S 750 mmHg 41%
    14:00 +19°C° 0 mm 6 m/S 750 mmHg 41%
    15:00 +19°C° 0 mm 5 m/S 749 mmHg 43%
    16:00 +17°C° 0 mm 5 m/S 749 mmHg 45%
    17:00 +17°C° 0 mm 5 m/S 749 mmHg 47%
    18:00 +17°C° 0 mm 4 m/S 748 mmHg 52%
    19:00 +14°C° 0 mm 4 m/S 748 mmHg 56%
    20:00 +12°C° 0 mm 3 m/S 748 mmHg 61%
    21:00 +12°C° 0 mm 3 m/S 748 mmHg 63%
    22:00 +11°C° 0 mm 3 m/S 748 mmHg 64%
    23:00 +10°C° 0 mm 3 m/S 748 mmHg 66%
    Mehr zeigen